Regional Weather Roundup
Issued by NWS

Home | Current Version | Previous Version | Text Only | Print | Product List | Glossary On
Versions: 1 2 3 4 5 6 7 8 9 10 11 12 13 14 15 16 17 18 19 20 21 22 23 24 25 26 27 28 29 30 31 32 33 34 35 36 37 38 39 40 41 42 43 44 45 46 47 48 49 50
000
ASUS43 KLSX 241210
RWRMO

WEATHER SUMMARY FOR MISSOURI
NATIONAL WEATHER SERVICE SPRINGFIELD MO
700 AM CDT WED AUG 24 2016

NOTE: "FAIR" INDICATES FEW OR NO CLOUDS BELOW 12,000 FEET WITH NO
       SIGNIFICANT WEATHER AND/OR OBSTRUCTIONS TO VISIBILITY.
       CURRENT SKY AND/OR WEATHER CONDITIONS ARE NOT AVAILABLE FOR
       CHILLICOTHE AND FARMINGTON.

MOZ001>031-035>038-043-044-053-054-241300-
...NORTHERN AND WESTERN MISSOURI...

CITY           SKY/WX    TMP DP  RH WIND       PRES   REMARKS
KANSAS CTY INT MOCLDY    67  65  93 S14       29.96S
6HR MIN TEMP:  67; 6HR MAX TEMP:  80; 6HR PCP:  1.39;

KANSAS C DTWN  CLOUDY    70  66  87 SE8       29.96F
6HR MIN TEMP:  69; 6HR MAX TEMP:  82; 6HR PCP:  0.41;

LEE`S SUMMIT   CLOUDY    69  67  93 SE10      30.00F
6HR MIN TEMP:  69; 6HR MAX TEMP:  79; 6HR PCP:  0.14;

ST JOSEPH      CLOUDY    68  65  90 S6        29.93R
6HR MIN TEMP:  66; 6HR MAX TEMP:  79; 6HR PCP:  1.48;

CHILLICOTHE      N/A     71  66  84 S9        29.95R
6HR MIN TEMP:  70; 6HR MAX TEMP:  79; 6HR PCP:  0.44;

KIRKSVILLE     CLOUDY    72  68  87 W13G20    29.94R
6HR MIN TEMP:  71; 6HR MAX TEMP:  77; 6HR PCP:  0.10;


$$
MOZ066>068-077>081-088>096-101>105-241300-
...SOUTHWEST MISSOURI...

CITY           SKY/WX    TMP DP  RH WIND       PRES   REMARKS
SPRINGFIELD    CLEAR     74  70  87 S14       30.07S
6HR MIN TEMP:  73; 6HR MAX TEMP:  78;

JOPLIN         MOCLDY    77  71  82 S13       30.04S
6HR MIN TEMP:  76; 6HR MAX TEMP:  78;

BRANSON        MOCLDY    75  72  88 SW5       30.13R

$$
MOZ032>034-039>042-045>050-055>058-069>072-241300-
...CENTRAL MISSOURI...

CITY           SKY/WX    TMP DP  RH WIND       PRES   REMARKS
COLUMBIA       CLOUDY    74  71  91 S10       30.03R
6HR MIN TEMP:  74; 6HR MAX TEMP:  75;

JEFFERSON CITY CLOUDY    76  71  85 SW6       30.03R
6HR MIN TEMP:  76; 6HR MAX TEMP:  77;

ROLLA          PTCLDY    74  71  91 S12       30.06R
6HR MIN TEMP:  74; 6HR MAX TEMP:  76;

SEDALIA        RAIN      74  71  91 N12G21    30.07R FOG
6HR MIN TEMP:  76; 6HR MAX TEMP:  79; 6HR PCP:  0.03;

WHITEMAN AFB   PTCLDY    70  70 100 NE6       30.03S
OSAGE BEACH    CLEAR     78  71  79 SW15G22   30.05R

$$
MOZ051-052-059>065-241300-
...EAST CENTRAL MISSOURI...

CITY           SKY/WX    TMP DP  RH WIND       PRES   REMARKS
ST LOUIS INTL  MOCLDY    77  72  84 S12       30.03F
6HR MIN TEMP:  75; 6HR MAX TEMP:  77;

SPIRIT OF STL  MOCLDY    76  73  91 S7        30.02S
6HR MIN TEMP:  70; 6HR MAX TEMP:  77;

ST CHARLES     CLOUDY    76  74  93 S8        30.01S
6HR MIN TEMP:  70; 6HR MAX TEMP:  76;


$$
MOZ072>076-082>087-097>100-106>115-241300-
...SOUTH CENTRAL AND SOUTHEAST MISSOURI...

CITY           SKY/WX    TMP DP  RH WIND       PRES   REMARKS
CAPE GIRARDEAU MOCLDY    75  73  93 S9        30.12S
6HR MIN TEMP:  74; 6HR MAX TEMP:  75;

FARMINGTON     PTCLDY    74  72  93 S10       30.11S
6HR MIN TEMP:  73; 6HR MAX TEMP:  74;

POPLAR BLUFF   CLEAR     74  72  93 S3        30.12R
6HR MIN TEMP:  72; 6HR MAX TEMP:  75;

WEST PLAINS    CLEAR     75  71  87 S8        30.14S
6HR MIN TEMP:  74; 6HR MAX TEMP:  76;


$$




USA.gov is the U.S. government's official web portal to all federal, state and local government web resources and services.